H1 CPF 2 NER 2022 2 18 9 049 01 glonass106 H2 0705201 9106 32275 2022 2 18 0 0 0 2022 2 21 23 45 0 900 1 1 0 0 0 1 H9 10 0 59628 0.00000 0 -3805593.598 -15089411.710 20214459.217 10 0 59628 900.00000 0 -1852901.503 -13390777.155 21634847.392 10 0 59628 1800.00000 0 346505.400 -11762337.882 22635220.079 10 0 59628 2700.00000 0 2746555.803 -10258159.871 23196184.320 10 0 59628 3600.00000 0 5291602.862 -8923735.279 23306870.107 10 0 59628 4500.00000 0 7918509.713 -7794174.134 22965138.847 10 0 59628 5400.00000 0 10559055.654 -6892848.408 22177623.962 10 0 59628 6300.00000 0 13142564.050 -6230544.287 20959602.888 10 0 59628 7200.00000 0 15598643.579 -5805157.312 19334702.834 10 0 59628 8100.00000 0 17859929.769 -5601942.404 17334445.612 10 0 59628 9000.00000 0 19864713.498 -5594307.683 14997639.822 10 0 59628 9900.00000 0 21559347.484 -5745118.263 12369631.609 10 0 59628 10800.00000 0 22900330.861 -6008454.795 9501427.950 10 0 59628 11700.00000 0 23855985.062 -6331752.327 6448708.974 10 0 59628 12600.00000 0 24407651.073 -6658228.983 3270748.258 10 0 59628 13500.00000 0 24550358.053 -6929501.496 29261.956 10 0 59628 14400.00000 0 24292935.404 -7088276.621 -3212790.801 10 0 59628 15300.00000 0 23657563.717 -7081004.060 -6392432.563 10 0 59628 16200.00000 0 22678783.669 -6860378.055 -9447893.094 10 0 59628 17100.00000 0 21402004.749 -6387581.053 -12319811.595 10 0 59628 18000.00000 0 19881576.771 -5634173.792 -14952391.742 10 0 59628 18900.00000 0 18178505.453 -4583551.032 -17294486.888 10 0 59628 19800.00000 0 16357908.225 -3231900.469 -19300594.233 10 0 59628 20700.00000 0 14486317.150 -1588623.384 -20931738.614 10 0 59628 21600.00000 0 12628942.063 323801.863 -22156229.001 10 0 59628 22500.00000 0 10847008.422 2470509.032 -22950273.289 10 0 59628 23400.00000 0 9195281.031 4805458.205 -23298439.750 10 0 59628 24300.00000 0 7719876.806 7273125.516 -23193956.498 10 0 59628 25200.00000 0 6456457.470 9810599.013 -22638843.339 10 0 59628 26100.00000 0 5428877.124 12349994.280 -21643873.501 10 0 59628 27000.00000 0 4648340.566 14821090.041 -20228365.869 10 0 59628 27900.00000 0 4113106.771 17154074.713 -18419811.491 10 0 59628 28800.00000 0 3808749.252 19282289.912 -16253341.251 10 0 59628 29700.00000 0 3708961.516 21144856.922 -13771044.683 10 0 59628 30600.00000 0 3776872.995 22689076.761 -11021152.729 10 0 59628 31500.00000 0 3966819.290 23872503.629 -8057100.170 10 0 59628 32400.00000 0 4226491.254 24664605.164 -4936485.837 10 0 59628 33300.00000 0 4499371.463 25047940.055 -1719950.887 10 0 59628 34200.00000 0 4727354.275 25018803.834 1530002.641 10 0 59628 35100.00000 0 4853437.921 24587316.049 4750229.628 10 0 59628 36000.00000 0 4824373.949 23776945.563 7878171.854 10 0 59628 36900.00000 0 4593161.231 22623494.430 10853075.634 10 0 59628 37800.00000 0 4121278.352 21173583.597 13617173.072 10 0 59628 38700.00000 0 3380559.386 19482704.551 16116803.731 10 0 59628 39600.00000 0 2354633.264 17612919.155 18303454.809 10 0 59628 40500.00000 0 1039865.409 15630304.448 20134699.861 10 0 59628 41400.00000 0 -554238.730 13602249.499 21575018.264 10 0 59628 42300.00000 0 -2405185.924 11594717.357 22596480.018 10 0 59628 43200.00000 0 -4478197.728 9669586.131 23179283.296 10 0 59628 44100.00000 0 -6727434.984 7882179.607 23312134.937 10 0 59628 45000.00000 0 -9097694.156 6279089.751 22992467.002 10 0 59628 45900.00000 0 -11526505.855 4896380.949 22226485.566 10 0 59628 46800.00000 0 -13946549.258 3758249.932 21029050.886 10 0 59628 47700.00000 0 -16288282.845 2876196.361 19423391.127 10 0 59628 48600.00000 0 -18482682.825 2248737.733 17440654.878 10 0 59628 49500.00000 0 -20463975.971 1861679.648 15119310.544 10 0 59628 50400.00000 0 -22172253.373 1688929.348 12504403.736 10 0 59628 51300.00000 0 -23555856.474 1693817.687 9646686.460 10 0 59628 52200.00000 0 -24573435.822 1830873.293 6601634.470 10 0 59628 53100.00000 0 -25195596.405 2047973.698 3428371.642 10 0 59628 54000.00000 0 -25406060.580 2288782.092 188522.093 10 0 59628 54900.00000 0 -25202299.720 2495366.244 -3054987.569 10 0 59628 55800.00000 0 -24595607.894 2610888.280 -6239152.245 10 0 59628 56700.00000 0 -23610614.455 2582250.888 -9302114.423 10 0 59628 57600.00000 0 -22284255.961 2362587.288 -12184368.103 10 0 59628 58500.00000 0 -20664250.651 1913488.914 -14829916.705 10 0 59628 59400.00000 0 -18807139.623 1206875.819 -17187362.161 10 0 59628 60300.00000 0 -16775976.910 226429.916 -19210903.989 10 0 59628 61200.00000 0 -14637765.358 -1031470.312 -20861228.834 10 0 59628 62100.00000 0 -12460745.590 -2557354.045 -22106273.502 10 0 59628 63000.00000 0 -10311651.245 -4328819.084 -22921846.936 10 0 59628 63900.00000 0 -8253044.934 -6311243.894 -23292099.353 10 0 59628 64800.00000 0 -6340845.677 -8459022.139 -23209829.797 10 0 59628 65700.00000 0 -4622150.411 -10717269.266 -22676626.293 10 0 59628 66600.00000 0 -3133439.859 -13023930.854 -21702835.946 10 0 59628 67500.00000 0 -1899242.810 -15312205.717 -20307365.482 10 0 59628 68400.00000 0 -931313.753 -17513183.439 -18517315.797 10 0 59628 69300.00000 0 -228357.372 -19558586.769 -16367457.301 10 0 59628 70200.00000 0 223689.547 -21383504.812 -13899555.829 10 0 59628 71100.00000 0 450831.609 -22929002.987 -11161561.812 10 0 59628 72000.00000 0 489679.388 -24144500.598 -8206678.276 10 0 59628 72900.00000 0 385662.334 -24989816.426 -5092325.645 10 0 59628 73800.00000 0 190866.324 -25436796.520 -1879023.559 10 0 59628 74700.00000 0 -38411.892 -25470455.795 1370788.200 10 0 59628 75600.00000 0 -244289.055 -25089585.525 4593966.334 10 0 59628 76500.00000 0 -369986.706 -24306801.301 7727894.062 10 0 59628 77400.00000 0 -362474.801 -23148029.657 10711700.020 10 0 59628 78300.00000 0 -174955.099 -21651455.224 13487441.952 10 0 59628 79200.00000 0 230921.356 -19865972.898 16001231.910 10 0 59628 80100.00000 0 883196.814 -17849210.314 18204280.993 10 0 59628 81000.00000 0 1798188.446 -15665203.632 20053843.539 10 0 59628 81900.00000 0 2979569.293 -13381823.989 21514042.850 10 0 59628 82800.00000 0 4417987.808 -11068062.033 22556562.932 10 0 59628 83700.00000 0 6091242.687 -8791283.553 23161193.513 10 0 59628 84600.00000 0 7965006.523 -6614570.016 23316218.398 10 0 59628 85500.00000 0 9994068.888 -4594254.104 23018640.131 10 0 59629 0.00000 0 12124047.753 -2777752.098 22274237.104 10 0 59629 900.00000 0 14293500.024 -1201781.378 21097451.580 10 0 59629 1800.00000 0 16436341.223 108961.329 19511111.841 10 0 59629 2700.00000 0 18484478.142 1142610.189 17545992.130 10 0 59629 3600.00000 0 20370542.542 1900393.740 15240219.313 10 0 59629 4500.00000 0 22030613.442 2396342.514 12638536.881 10 0 59629 5400.00000 0 23406814.390 2656453.825 9791440.009 10 0 59629 6300.00000 0 24449677.247 2717349.578 6754197.959 10 0 59629 7200.00000 0 25120173.363 2624484.293 3585782.513 10 0 59629 8100.00000 0 25391326.805 2429979.531 347723.130 10 0 59629 9000.00000 0 25249341.651 2190176.816 -2897088.903 10 0 59629 9900.00000 0 24694195.611 1963013.051 -6085623.704 10 0 59629 10800.00000 0 23739674.769 1805330.094 -9155939.324 10 0 59629 11700.00000 0 22412847.612 1770232.969 -12048387.295 10 0 59629 12600.00000 0 20753000.279 1904609.131 -14706773.297 10 0 59629 13500.00000 0 18810077.461 2246914.379 -17079450.133 10 0 59629 14400.00000 0 16642694.206 2825319.721 -19120321.658 10 0 59629 15300.00000 0 14315801.752 3656298.161 -20789738.111 10 0 59629 16200.00000 0 11898104.841 4743711.802 -22055265.675 10 0 59629 17100.00000 0 9459338.127 6078438.659 -22892315.647 10 0 59629 18000.00000 0 7067515.051 7638555.759 -23284621.266 10 0 59629 18900.00000 0 4786263.393 9390071.963 -23224553.295 10 0 59629 19800.00000 0 2672357.935 11288180.817 -22713268.442 10 0 59629 20700.00000 0 773552.381 13278982.011 -21760687.786 10 0 59629 21600.00000 0 -873199.923 15301600.387 -20385305.572 10 0 59629 22500.00000 0 -2243063.215 17290614.738 -18613831.794 10 0 59629 23400.00000 0 -3324120.372 19178695.386 -16480675.187 10 0 59629 24300.00000 0 -4117625.381 20899340.705 -14027276.254 10 0 59629 25200.00000 0 -4637697.713 22389598.234 -11301302.876 10 0 59629 26100.00000 0 -4910472.473 23592656.395 -8355723.903 10 0 59629 27000.00000 0 -4972743.181 24460198.034 -5247778.633 10 0 59629 27900.00000 0 -4870155.459 24954416.782 -2037862.208 10 0 59629 28800.00000 0 -4655028.827 25049611.276 1211650.995 10 0 59629 29700.00000 0 -4383899.685 24733290.002 4437622.741 10 0 59629 30600.00000 0 -4114890.278 24006740.144 7577380.935 10 0 59629 31500.00000 0 -3905015.772 22885036.430 10569939.702 10 0 59629 32400.00000 0 -3807544.115 21396489.626 13357185.441 10 0 59629 33300.00000 0 -3869520.920 19581557.845 15885005.524 10 0 59629 34200.00000 0 -4129564.488 17491266.474 18104337.543 10 0 59629 35100.00000 0 -4616024.466 15185202.894 19972118.948 10 0 59629 36000.00000 0 -5345582.193 12729169.811 21452119.017 10 0 59629 36900.00000 0 -6322352.031 10192595.044 22515637.503 10 0 59629 37800.00000 0 -7537521.947 7645805.400 23142057.089 10 0 59629 38700.00000 0 -8969549.032 5157277.583 23319239.563 10 0 59629 39600.00000 0 -10584902.412 2790979.879 23043758.545 10 0 59629 40500.00000 0 -12339323.282 603914.213 22320964.674 10 0 59629 41400.00000 0 -14179550.280 -1356040.229 21164882.080 10 0 59629 42300.00000 0 -16045438.917 -3051893.152 19597938.089 10 0 59629 43200.00000 0 -17872387.410 -4458846.703 17650531.077 10 0 59629 44100.00000 0 -19593968.264 -5565083.191 15360444.301 10 0 59629 45000.00000 0 -21144656.098 -6372005.108 12772116.571 10 0 59629 45900.00000 0 -22462537.941 -6893918.430 9935783.269 10 0 59629 46800.00000 0 -23491892.630 -7157173.394 6906503.868 10 0 59629 47700.00000 0 -24185530.989 -7198799.671 3743094.554 10 0 59629 48600.00000 0 -24506798.366 -7064694.172 506986.504 10 0 59629 49500.00000 0 -24431154.924 -6807438.632 -2738967.954 10 0 59629 50400.00000 0 -23947266.785 -6483839.779 -5931717.766 10 0 59629 51300.00000 0 -23057561.571 -6152296.746 -9009240.043 10 0 59629 52200.00000 0 -21778224.449 -5870107.650 -11911747.185 10 0 59629 53100.00000 0 -20138634.347 -5690829.897 -14582850.246 10 0 59629 54000.00000 0 -18180263.542 -5661806.420 -16970655.713 10 0 59629 54900.00000 0 -15955086.323 -5821962.967 -19028774.210 10 0 59629 55800.00000 0 -13523563.052 -6199970.025 -20717221.513 10 0 59629 56700.00000 0 -10952283.496 -6812847.524 -22003194.585 10 0 59629 57600.00000 0 -8311367.418 -7665071.734 -22861707.866 10 0 59629 58500.00000 0 -5671730.429 -8748222.640 -23276077.770 10 0 59629 59400.00000 0 -3102328.418 -10041187.384 -23238246.330 10 0 59629 60300.00000 0 -667494.635 -11510912.093 -22748937.915 10 0 59629 61200.00000 0 1575520.386 -13113671.381 -21817646.067 10 0 59629 62100.00000 0 3578704.516 -14796803.153 -20462450.618 10 0 59629 63000.00000 0 5305046.425 -16500836.829 -18709668.370 10 0 59629 63900.00000 0 6729832.071 -18161926.358 -16593343.808 10 0 59629 64800.00000 0 7841422.217 -19714486.543 -14154589.297 10 0 59629 65700.00000 0 8641479.482 -21093922.371 -11440787.180 10 0 59629 66600.00000 0 9144636.482 -22239336.807 -8504669.045 10 0 59629 67500.00000 0 9377620.136 -23096103.214 -5403289.899 10 0 59629 68400.00000 0 9377870.118 -23618193.987 -2196917.248 10 0 59629 69300.00000 0 9191710.752 -23770167.055 1052143.013 10 0 59629 70200.00000 0 8872154.611 -23528726.284 4280760.643 10 0 59629 71100.00000 0 8476431.612 -22883789.691 7426210.968 10 0 59629 72000.00000 0 8063348.964 -21839020.196 10427396.095 10 0 59629 72900.00000 0 7690594.383 -20411796.334 13226033.291 10 0 59629 73800.00000 0 7412097.221 -18632623.898 15767787.128 10 0 59629 74700.00000 0 7275559.494 -16544013.091 18003323.224 10 0 59629 75600.00000 0 7320261.369 -14198868.018 19889263.303 10 0 59629 76500.00000 0 7575233.936 -11658455.631 21389023.400 10 0 59629 77400.00000 0 8057876.389 -8990038.669 22473519.416 10 0 59629 78300.00000 0 8773076.004 -6264270.807 23121727.029 10 0 59629 79200.00000 0 9712868.155 -3552461.808 23321085.712 10 0 59629 80100.00000 0 10856650.995 -923825.739 23067739.567 10 0 59629 81000.00000 0 12171946.303 1557174.328 22366610.717 10 0 59629 81900.00000 0 13615675.270 3833275.851 21231303.957 10 0 59629 82800.00000 0 15135896.436 5856559.770 19683844.467 10 0 59629 83700.00000 0 16673933.795 7590198.932 17754253.341 10 0 59629 84600.00000 0 18166806.594 9009740.284 15479968.672 10 0 59629 85500.00000 0 19549859.595 10103868.384 12905122.866 10 0 59630 0.00000 0 20759483.794 10874619.318 10079689.880 10 0 59630 900.00000 0 21735814.263 11337037.377 7058516.817 10 0 59630 1800.00000 0 22425290.134 11518288.769 3900262.262 10 0 59630 2700.00000 0 22782971.025 11456271.872 666256.710 10 0 59630 3600.00000 0 22774510.369 11197782.169 -2580688.980 10 0 59630 4500.00000 0 22377702.658 10796310.483 -5777505.121 10 0 59630 5400.00000 0 21583538.703 10309568.050 -8862090.381 10 0 59630 6300.00000 0 20396723.747 9796843.652 -11774520.398 10 0 59630 7200.00000 0 18835635.931 9316305.073 -14458213.802 10 0 59630 8100.00000 0 16931726.129 8922359.485 -16861032.733 10 0 59630 9000.00000 0 14728383.636 8663184.708 -18936296.346 10 0 59630 9900.00000 0 12279314.622 8578536.020 -20643687.510 10 0 59630 10800.00000 0 9646500.541 8697921.400 -21950035.347 10 0 59630 11700.00000 0 6897821.098 9039222.476 -22829958.661 10 0 59630 12600.00000 0 4104440.354 9607819.656 -23266358.095 10 0 59630 13500.00000 0 1338064.123 10396258.647 -23250747.805 10 0 59630 14400.00000 0 -1331817.921 11384472.925 -22783420.426 10 0 59630 15300.00000 0 -3840591.387 12540553.351 -21873442.234 10 0 59630 16200.00000 0 -6130967.789 13822033.217 -20538478.539 10 0 59630 17100.00000 0 -8155125.540 15177635.395 -18804452.428 10 0 59630 18000.00000 0 -9876452.929 16549408.735 -16705043.172 10 0 59630 18900.00000 0 -11270821.373 17875164.417 -14281033.624 10 0 59630 19800.00000 0 -12327336.732 19091110.162 -11579518.834 10 0 59630 20700.00000 0 -13048538.179 20134571.579 -8652991.034 10 0 59630 21600.00000 0 -13450037.403 20946686.036 -5558318.580 10 0 59630 22500.00000 0 -13559614.368 21474955.349 -2355638.751 10 0 59630 23400.00000 0 -13415808.757 21675549.320 892813.790 10 0 59630 24300.00000 0 -13066067.602 21515262.538 4123919.674 10 0 59630 25200.00000 0 -12564528.292 20973041.449 7274904.587 10 0 59630 26100.00000 0 -11969531.555 20041016.853 10284561.585 10 0 59630 27000.00000 0 -11340970.340 18724997.834 13094441.731 10 0 59630 27900.00000 0 -10737587.254 17044405.939 15649989.648 10 0 59630 28800.00000 0 -10214335.194 15031651.944 17901601.702 10 0 59630 29700.00000 0 -9819912.858 12730980.962 19805586.435 10 0 59630 30600.00000 0 -9594579.180 10196833.742 21325008.959 10 0 59630 31500.00000 0 -9568338.776 7491792.211 22430403.377 10 0 59630 32400.00000 0 -9759574.661 4684194.299 23100340.100 10 0 59630 33300.00000 0 -10174185.694 1845516.650 23321837.666 10 0 59630 34200.00000 0 -10805264.939 -952366.683 23090611.633 10 0 59630 35100.00000 0 -11633332.584 -3639936.615 22411156.132 10 0 59630 36000.00000 0 -12627113.902 -6152679.199 21296656.658 10 0 59630 36900.00000 0 -13744829.981 -8433524.474 19768735.753 10 0 59630 37800.00000 0 -14935947.598 -10434973.756 17857036.219 10 0 59630 38700.00000 0 -16143315.335 -12120827.954 15598649.441 10 0 59630 39600.00000 0 -17305596.743 -13467445.821 13037399.399 10 0 59630 40500.00000 0 -18359898.731 -14464480.663 10222995.631 10 0 59630 41400.00000 0 -19244484.924 -15115065.575 7210071.058 10 0 59630 42300.00000 0 -19901459.815 -15435440.237 4057123.043 10 0 59630 43200.00000 0 -20279310.501 -15454035.763 825378.052 10 0 59630 44100.00000 0 -20335198.505 -15210056.821 -2422398.021 10 0 59630 45000.00000 0 -20036904.481 -14751621.420 -5623120.433 10 0 59630 45900.00000 0 -19364343.130 -14133537.533 -8714613.018 10 0 59630 46800.00000 0 -18310583.618 -13414810.960 -11636818.216 10 0 59630 47700.00000 0 -16882331.696 -12655990.271 -14332965.669 10 0 59630 48600.00000 0 -15099852.331 -11916461.385 -16750676.415 10 0 59630 49500.00000 0 -12996335.152 -11251806.425 -18842981.063 10 0 59630 50400.00000 0 -10616728.522 -10711338.560 -20569232.099 10 0 59630 51300.00000 0 -8016090.145 -10335916.985 -21895892.801 10 0 59630 52200.00000 0 -5257522.252 -10156134.258 -22797187.759 10 0 59630 53100.00000 0 -2409776.786 -10190952.376 -23255602.643 10 0 59630 54000.00000 0 455370.546 -10446845.105 -23262223.906 10 0 59630 54900.00000 0 3265868.885 -10917482.750 -22816912.039 10 0 59630 55800.00000 0 5952149.938 -11583972.823 -21928305.125 10 0 59630 56700.00000 0 8449780.955 -12415646.754 -20613652.551 10 0 59630 57600.00000 0 10701903.469 -13371359.887 -18898481.877 10 0 59630 58500.00000 0 12661356.988 -14401250.419 -16816104.981 10 0 59630 59400.00000 0 14292399.980 -15448883.570 -14406972.669 10 0 59630 60300.00000 0 15571957.201 -16453690.924 -11717889.838 10 0 59630 61200.00000 0 16490341.967 -17353602.234 -8801106.210 10 0 59630 62100.00000 0 17051424.095 -18087758.670 -5713300.096 10 0 59630 63000.00000 0 17272237.425 -18599192.803 -2514474.977 10 0 59630 63900.00000 0 17182044.369 -18837361.821 733209.355 10 0 59630 64800.00000 0 16820897.929 -18760426.528 3966647.996 10 0 59630 65700.00000 0 16237762.822 -18337179.349 7123020.438 10 0 59630 66600.00000 0 15488275.893 -17548539.373 10141013.845 10 0 59630 67500.00000 0 14632241.246 -16388550.773 12962015.886 10 0 59630 68400.00000 0 13730966.486 -14864841.920 15531253.613 10 0 59630 69300.00000 0 12844553.007 -12998525.335 17798856.043 10 0 59630 70200.00000 0 12029254.895 -10823542.049 19720819.953 10 0 59630 71100.00000 0 11335017.807 -8385477.224 21259860.463 10 0 59630 72000.00000 0 10803301.344 -5739895.912 22386130.342 10 0 59630 72900.00000 0 10465276.253 -2950267.721 23077794.748 10 0 59630 73800.00000 0 10340471.887 -85565.939 23321450.906 10 0 59630 74700.00000 0 10435930.402 2782359.724 23112385.075 10 0 59630 75600.00000 0 10745902.890 5581528.670 22454662.332 10 0 59630 76500.00000 0 11252100.072 8242580.165 21361047.540 10 0 59630 77400.00000 0 11924486.987 10701416.037 19852759.054 10 0 59630 78300.00000 0 12722588.440 12901626.598 17959059.639 10 0 59630 79200.00000 0 13597250.638 14796599.891 15716692.082 10 0 59630 80100.00000 0 14492785.196 16351227.310 13169169.881 10 0 59630 81000.00000 0 15349405.659 17543135.346 10365936.234 10 0 59630 81900.00000 0 16105854.087 18363392.797 7361407.046 10 0 59630 82800.00000 0 16702107.091 18816664.518 4213916.259 10 0 59630 83700.00000 0 17082047.045 18920805.950 984583.776 10 0 59630 84600.00000 0 17195985.434 18705916.137 -2263872.049 10 0 59630 85500.00000 0 17002931.281 18212889.652 -5468353.956 10 0 59631 0.00000 0 16472508.299 17491529.127 -8566613.111 10 0 59631 900.00000 0 15586438.634 16598298.083 -11498461.577 10 0 59631 1800.00000 0 14339530.547 15593810.394 -14206941.765 10 0 59631 2700.00000 0 12740126.442 14540161.390 -16639435.408 10 0 59631 3600.00000 0 10809991.996 13498214.432 -18748686.124 10 0 59631 4500.00000 0 8583649.789 12524957.204 -20493717.344 10 0 59631 5400.00000 0 6107184.336 11671039.230 -21840627.661 10 0 59631 6300.00000 0 3436567.416 10978594.255 -22763248.439 10 0 59631 7200.00000 0 635572.710 10479438.978 -23243651.207 10 0 59631 8100.00000 0 -2226634.345 10193723.697 -23272495.360 10 0 59631 9000.00000 0 -5078132.104 10129091.382 -22849209.654 10 0 59631 9900.00000 0 -7846994.814 10280380.338 -21982004.081 10 0 59631 10800.00000 0 -10464047.711 10629882.839 -20687711.856 10 0 59631 11700.00000 0 -12865511.342 11148148.799 -18991464.375 10 0 59631 12600.00000 0 -14995425.696 11795300.665 -16926205.092 10 0 59631 13500.00000 0 -16807753.940 12522804.208 -14532051.373 10 0 59631 14400.00000 0 -18268078.663 13275620.606 -11855516.266 10 0 59631 15300.00000 0 -19354820.399 13994649.013 -8948605.032 10 0 59631 16200.00000 0 -20059928.137 14619356.371 -5867803.790 10 0 59631 17100.00000 0 -20389013.671 15090483.123 -2672979.934 10 0 59631 18000.00000 0 -20360924.868 15352710.084 573784.036 10 0 59631 18900.00000 0 -20006776.729 15357173.216 3809400.203 10 0 59631 19800.00000 0 -19368481.928 15063719.412 6971004.475 10 0 59631 20700.00000 0 -18496843.610 14442807.319 9997180.807 10 0 59631 21600.00000 0 -17449291.734 13476972.245 12829156.190 10 0 59631 22500.00000 0 -16287359.078 12161792.670 15411942.813 10 0 59631 23400.00000 0 -15074003.856 10506316.965 17695404.986 10 0 59631 24300.00000 0 -13870892.055 8532931.670 19635230.224 10 0 59631 25200.00000 0 -12735753.951 6276676.069 21193785.952 10 0 59631 26100.00000 0 -11719925.879 3784031.035 22340845.635 10 0 59631 27000.00000 0 -10866180.133 1111231.879 23054170.909 10 0 59631 27900.00000 0 -10206933.636 -1677825.379 23319939.043 10 0 59631 28800.00000 0 -9762909.927 -4513998.026 23133008.001 10 0 59631 29700.00000 0 -9542310.013 -7325531.609 22497014.387 10 0 59631 30600.00000 0 -9540526.255 -10040807.389 21424302.609 10 0 59631 31500.00000 0 -9740410.917 -12591089.092 19935686.574 10 0 59631 32400.00000 0 -10113087.781 -14913155.838 18060048.321 10 0 59631 33300.00000 0 -10619272.584 -16951712.712 15833780.902 10 0 59631 34200.00000 0 -11211046.751 -18661479.352 13300085.813 10 0 59631 35100.00000 0 -11834009.774 -20008870.313 10508137.992 10 0 59631 36000.00000 0 -12429719.607 -20973197.623 7512134.080 10 0 59631 36900.00000 0 -12938318.107 -21547345.812 4370242.062 10 0 59631 37800.00000 0 -13301230.558 -21737891.619 1143472.499 10 0 59631 38700.00000 0 -13463824.934 -21564663.865 -2105506.778 10 0 59631 39600.00000 0 -13377918.060 -21059762.416 -5313589.155 10 0 59631 40500.00000 0 -13004022.127 -20266078.018 -8418456.960 10 0 59631 41400.00000 0 -12313235.833 -19235375.766 -11359794.144 10 0 59631 42300.00000 0 -11288699.430 -18026023.392 -14080459.855 10 0 59631 43200.00000 0 -9926551.274 -16700460.450 -16527599.840 10 0 59631 44100.00000 0 -8236344.497 -15322515.273 -18653673.875 10 0 59631 45000.00000 0 -6240905.188 -13954682.846 -20417379.195 10 0 59631 45900.00000 0 -3975636.842 -12655478.127 -21784452.166 10 0 59631 46800.00000 0 -1487299.037 -11476975.958 -22728332.905 10 0 59631 47700.00000 0 1167689.733 -10462640.701 -23230680.250 10 0 59631 48600.00000 0 3925355.357 -9645536.325 -23281727.445 10 0 59631 49500.00000 0 6716591.016 -9046991.648 -22880471.885 10 0 59631 50400.00000 0 9469799.709 -8675776.293 -22034695.350 10 0 59631 51300.00000 0 12113647.395 -8527821.489 -20760814.312 10 0 59631 52200.00000 0 14579813.007 -8586497.014 -19083562.980 10 0 59631 53100.00000 0 16805621.487 -8823432.283 -17035514.928 10 0 59631 54000.00000 0 18736450.769 -9199846.707 -14656452.183 10 0 59631 54900.00000 0 20327812.905 -9668333.004 -11992593.575 10 0 59631 55800.00000 0 21547022.768 -10175017.958 -9095697.072 10 0 59631 56700.00000 0 22374385.110 -10662009.099 -6022053.351 10 0 59631 57600.00000 0 22803850.711 -11070023.517 -2831390.099 10 0 59631 58500.00000 0 22843114.637 -11341087.207 414291.326 10 0 59631 59400.00000 0 22513153.151 -11421190.174 3651923.953 10 0 59631 60300.00000 0 21847219.455 -11262784.374 6818604.013 10 0 59631 61200.00000 0 20889341.262 -10827018.136 9852815.969 10 0 59631 62100.00000 0 19692384.242 -10085611.939 12695629.522 10 0 59631 63000.00000 0 18315763.495 -9022295.565 15291844.970 10 0 59631 63900.00000 0 16822899.994 -7633745.323 17591064.405 10 0 59631 64800.00000 0 15278529.317 -5929981.107 19548668.061 10 0 59631 65700.00000 0 13745975.910 -3934205.774 21126677.140 10 0 59631 66600.00000 0 12284507.258 -1682092.776 22294486.772 10 0 59631 67500.00000 0 10946878.592 779449.075 23029455.549 10 0 59631 68400.00000 0 9777170.473 3393983.121 23317340.815 10 0 59631 69300.00000 0 8809009.139 6097654.427 23152571.809 10 0 59631 70200.00000 0 8064243.322 8821614.628 22538355.845 10 0 59631 71100.00000 0 7552132.105 11494662.322 21486615.668 10 0 59631 72000.00000 0 7269077.077 14045990.124 20017759.203 10 0 59631 72900.00000 0 7198909.323 16407925.200 18160285.937 10 0 59631 73800.00000 0 7313718.672 18518550.129 15950237.122 10 0 59631 74700.00000 0 7575189.941 20324095.658 13430499.951 10 0 59631 75600.00000 0 7936389.689 21781006.230 10649978.634 10 0 59631 76500.00000 0 8343927.976 22857592.578 7662647.908 10 0 59631 77400.00000 0 8740403.755 23535202.584 4526507.035 10 0 59631 78300.00000 0 9067030.407 23808861.753 1302454.370 10 0 59631 79200.00000 0 9266330.119 23687356.684 -1946895.660 10 0 59631 80100.00000 0 9284782.738 23192758.311 -5158429.926 10 0 59631 81000.00000 0 9075316.514 22359405.228 -8269764.347 10 0 59631 81900.00000 0 8599534.629 21232390.170 -11220457.803 10 0 59631 82800.00000 0 7829582.648 19865613.611 -13953188.121 10 0 59631 83700.00000 0 6749577.034 18319486.670 -16414866.989 10 0 59631 84600.00000 0 5356533.434 16658380.123 -18557671.973 10 0 59631 85500.00000 0 3660754.578 14947926.923 -20339975.470 99